TimeCDT,TemperatureF,Dew PointF,Humidity,Sea Level PressureIn,VisibilityMPH,Wind Direction,Wind SpeedMPH,Gust SpeedMPH,PrecipitationIn,Events,Conditions,WindDirDegrees,DateUTC
12:56 AM,81.0,73.0,77,29.92,10.0,SSW,11.5,-,N/A,,Scattered Clouds,200,2013-06-26 05:56:00
1:56 AM,80.1,73.0,79,29.92,10.0,SSW,8.1,-,N/A,,Scattered Clouds,200,2013-06-26 06:56:00
2:56 AM,78.1,73.0,84,29.93,10.0,SSW,6.9,-,N/A,,Mostly Cloudy,200,2013-06-26 07:56:00
3:56 AM,77.0,73.0,88,29.92,10.0,South,8.1,-,N/A,,Scattered Clouds,190,2013-06-26 08:56:00
4:56 AM,77.0,73.9,90,29.93,10.0,SSW,6.9,-,N/A,,Partly Cloudy,200,2013-06-26 09:56:00
5:03 AM,77.0,73.4,89,29.94,10.0,South,9.2,-,N/A,,Mostly Cloudy,190,2013-06-26 10:03:00
5:56 AM,75.9,73.9,94,29.95,10.0,South,6.9,-,N/A,,Mostly Cloudy,190,2013-06-26 10:56:00
6:13 AM,75.2,73.4,94,29.96,10.0,South,6.9,-,N/A,,Mostly Cloudy,190,2013-06-26 11:13:00
6:22 AM,75.2,73.4,94,29.97,9.0,South,4.6,-,N/A,,Scattered Clouds,190,2013-06-26 11:22:00
6:56 AM,77.0,73.9,90,29.97,9.0,SSW,6.9,-,N/A,,Mostly Cloudy,200,2013-06-26 11:56:00
7:34 AM,78.8,73.4,83,30.00,9.0,SSW,8.1,-,N/A,,Mostly Cloudy,200,2013-06-26 12:34:00
7:56 AM,78.1,75.0,90,29.99,10.0,SSW,6.9,-,N/A,,Mostly Cloudy,200,2013-06-26 12:56:00
8:42 AM,80.6,75.2,84,30.02,10.0,SSW,11.5,-,N/A,,Scattered Clouds,200,2013-06-26 13:42:00
8:56 AM,80.1,73.9,81,30.01,10.0,SW,12.7,-,N/A,,Scattered Clouds,220,2013-06-26 13:56:00
9:01 AM,80.6,73.4,79,30.02,10.0,SW,10.4,-,N/A,,Mostly Cloudy,230,2013-06-26 14:01:00
9:56 AM,84.0,73.9,72,30.01,10.0,SW,13.8,17.3,N/A,,Mostly Cloudy,230,2013-06-26 14:56:00
10:03 AM,84.2,73.4,70,30.02,10.0,SSW,10.4,-,N/A,,Scattered Clouds,210,2013-06-26 15:03:00
10:56 AM,87.1,73.9,65,30.01,10.0,SW,11.5,16.1,N/A,,Scattered Clouds,220,2013-06-26 15:56:00
11:56 AM,88.0,72.0,59,30.00,10.0,SW,11.5,17.3,N/A,,Mostly Cloudy,230,2013-06-26 16:56:00
12:56 PM,91.0,73.0,55,29.98,10.0,WSW,11.5,16.1,N/A,,Scattered Clouds,240,2013-06-26 17:56:00
1:56 PM,91.9,72.0,52,29.96,10.0,SSW,11.5,-,N/A,,Scattered Clouds,200,2013-06-26 18:56:00
2:56 PM,91.9,73.0,54,29.94,10.0,SSW,6.9,-,N/A,,Mostly Cloudy,200,2013-06-26 19:56:00
3:56 PM,93.0,73.0,52,29.93,10.0,South,10.4,-,N/A,,Scattered Clouds,190,2013-06-26 20:56:00
4:56 PM,93.0,73.0,52,29.91,10.0,South,8.1,-,N/A,,Scattered Clouds,180,2013-06-26 21:56:00
5:56 PM,93.0,73.0,52,29.89,10.0,South,10.4,-,N/A,,Partly Cloudy,180,2013-06-26 22:56:00
6:56 PM,91.9,72.0,52,29.89,10.0,South,6.9,-,N/A,,Partly Cloudy,180,2013-06-26 23:56:00
7:56 PM,88.0,73.0,61,29.89,10.0,South,4.6,-,N/A,,Clear,170,2013-06-27 00:56:00
8:56 PM,84.0,73.9,72,29.90,10.0,South,5.8,-,N/A,,Partly Cloudy,180,2013-06-27 01:56:00
9:56 PM,82.9,73.9,74,29.91,10.0,South,4.6,-,N/A,,Partly Cloudy,180,2013-06-27 02:56:00
10:56 PM,82.0,73.9,76,29.92,10.0,South,6.9,-,N/A,,Partly Cloudy,190,2013-06-27 03:56:00
11:56 PM,82.0,73.0,74,29.92,10.0,SSW,6.9,-,N/A,,Partly Cloudy,210,2013-06-27 04:56:00